Time,TemperatureF,DewpointF,PressureIn,WindDirection,WindDirectionDegrees,WindSpeedMPH,WindSpeedGustMPH,Humidity,HourlyPrecipIn,Conditions,Clouds,dailyrainin,SoftwareType,DateUTC
2013-01-18 00:14:00,29.7,27.1,30.15,West,270,6.8,-999.0,90,-99.99,,,0.00,Acu-Link.com,2013-01-18 05:14:00,
2013-01-18 00:29:00,29.5,26.7,30.15,WNW,292,3.7,-999.0,89,-99.99,,,0.00,Acu-Link.com,2013-01-18 05:29:00,
2013-01-18 00:44:00,29.8,27.0,30.15,NW,315,5.3,-999.0,89,-99.99,,,0.00,Acu-Link.com,2013-01-18 05:44:00,
2013-01-18 00:59:00,28.9,25.8,30.16,WNW,292,2.7,-999.0,88,-99.99,,,0.00,Acu-Link.com,2013-01-18 05:59:00,
2013-01-18 01:14:00,28.8,25.4,30.17,NW,315,4.2,-999.0,87,-99.99,,,0.00,Acu-Link.com,2013-01-18 06:14:00,
2013-01-18 01:30:00,28.6,25.0,30.18,WNW,292,3.7,-999.0,86,-99.99,,,0.00,Acu-Link.com,2013-01-18 06:30:00,
2013-01-18 01:45:00,28.0,24.4,30.18,NW,315,3.7,-999.0,86,-99.99,,,0.00,Acu-Link.com,2013-01-18 06:45:00,
2013-01-18 02:00:00,27.5,23.6,30.18,WNW,292,6.3,-999.0,85,-99.99,,,0.00,Acu-Link.com,2013-01-18 07:00:00,
2013-01-18 02:15:00,27.5,23.6,30.19,NNW,337,5.8,-999.0,85,-99.99,,,0.00,Acu-Link.com,2013-01-18 07:15:00,
2013-01-18 02:30:00,27.0,22.8,30.20,NW,315,4.7,-999.0,84,-99.99,,,0.00,Acu-Link.com,2013-01-18 07:30:00,
2013-01-18 02:45:00,26.4,22.5,30.20,West,270,3.2,-999.0,85,-99.99,,,0.00,Acu-Link.com,2013-01-18 07:45:00,
2013-01-18 03:00:00,26.1,22.2,30.20,North,0,4.2,-999.0,85,-99.99,,,0.00,Acu-Link.com,2013-01-18 08:00:00,
2013-01-18 03:15:00,25.3,21.4,30.21,NE,45,1.1,-999.0,85,-99.99,,,0.00,Acu-Link.com,2013-01-18 08:15:00,
2013-01-18 03:30:00,25.0,21.4,30.22,SSW,202,0.0,-999.0,86,-99.99,,,0.00,Acu-Link.com,2013-01-18 08:30:00,
2013-01-18 03:46:00,24.4,21.1,30.21,NNE,22,2.2,-999.0,87,-99.99,,,0.00,Acu-Link.com,2013-01-18 08:46:00,
2013-01-18 04:01:00,25.0,21.1,30.22,NE,45,4.2,-999.0,85,-99.99,,,0.00,Acu-Link.com,2013-01-18 09:01:00,
2013-01-18 04:16:00,24.3,20.5,30.21,ENE,67,3.7,-999.0,85,-99.99,,,0.00,Acu-Link.com,2013-01-18 09:16:00,
2013-01-18 04:31:00,23.9,20.1,30.22,North,0,2.2,-999.0,85,-99.99,,,0.00,Acu-Link.com,2013-01-18 09:31:00,
2013-01-18 04:46:00,23.4,19.3,30.22,NE,45,2.2,-999.0,84,-99.99,,,0.00,Acu-Link.com,2013-01-18 09:46:00,
2013-01-18 05:01:00,23.2,19.1,30.22,NNE,22,4.7,-999.0,84,-99.99,,,0.00,Acu-Link.com,2013-01-18 10:01:00,
2013-01-18 05:16:00,22.5,18.4,30.24,NNW,337,2.2,-999.0,84,-99.99,,,0.00,Acu-Link.com,2013-01-18 10:16:00,
2013-01-18 05:31:00,21.9,17.8,30.24,NNW,337,2.2,-999.0,84,-99.99,,,0.00,Acu-Link.com,2013-01-18 10:31:00,
2013-01-18 05:46:00,21.6,17.8,30.24,NNW,337,0.0,-999.0,85,-99.99,,,0.00,Acu-Link.com,2013-01-18 10:46:00,
2013-01-18 06:02:00,21.0,17.5,30.25,WNW,292,0.0,-999.0,86,-99.99,,,0.00,Acu-Link.com,2013-01-18 11:02:00,
2013-01-18 06:17:00,21.2,17.9,30.25,NNE,22,0.0,-999.0,87,-99.99,,,0.00,Acu-Link.com,2013-01-18 11:17:00,
2013-01-18 06:32:00,21.0,17.8,30.26,WNW,292,2.7,-999.0,87,-99.99,,,0.00,Acu-Link.com,2013-01-18 11:32:00,
2013-01-18 06:47:00,20.3,17.1,30.26,WNW,292,0.0,-999.0,87,-99.99,,,0.00,Acu-Link.com,2013-01-18 11:47:00,
2013-01-18 07:03:00,20.3,17.1,30.28,West,270,0.0,-999.0,87,-99.99,,,0.00,Acu-Link.com,2013-01-18 12:03:00,
2013-01-18 07:18:00,19.6,16.4,30.28,WNW,292,1.7,-999.0,87,-99.99,,,0.00,Acu-Link.com,2013-01-18 12:18:00,
2013-01-18 07:33:00,18.9,15.7,30.28,NE,45,0.0,-999.0,87,-99.99,,,0.00,Acu-Link.com,2013-01-18 12:33:00,
2013-01-18 07:48:00,18.0,14.8,30.28,West,270,0.0,-999.0,87,-99.99,,,0.00,Acu-Link.com,2013-01-18 12:48:00,
2013-01-18 08:03:00,18.0,14.8,30.28,North,0,0.0,-999.0,87,-99.99,,,0.00,Acu-Link.com,2013-01-18 13:03:00,
2013-01-18 08:18:00,20.7,17.7,30.28,ESE,112,0.0,-999.0,88,-99.99,,,0.00,Acu-Link.com,2013-01-18 13:18:00,
2013-01-18 08:33:00,21.7,18.4,30.27,East,90,0.0,-999.0,87,-99.99,,,0.00,Acu-Link.com,2013-01-18 13:33:00,
2013-01-18 08:48:00,22.1,18.8,30.26,ESE,112,0.0,-999.0,87,-99.99,,,0.00,Acu-Link.com,2013-01-18 13:48:00,
2013-01-18 09:03:00,25.3,20.9,30.28,ENE,67,4.2,-999.0,83,-99.99,,,0.00,Acu-Link.com,2013-01-18 14:03:00,
2013-01-18 09:19:00,26.2,21.2,30.28,ENE,67,5.3,-999.0,81,-99.99,,,0.00,Acu-Link.com,2013-01-18 14:19:00,
2013-01-18 09:34:00,26.1,20.8,30.29,SSE,157,1.1,-999.0,80,-99.99,,,0.00,Acu-Link.com,2013-01-18 14:34:00,
2013-01-18 09:49:00,26.8,20.6,30.29,SE,135,4.2,-999.0,77,-99.99,,,0.00,Acu-Link.com,2013-01-18 14:49:00,
2013-01-18 10:04:00,27.5,21.3,30.30,ESE,112,6.3,-999.0,77,-99.99,,,0.00,Acu-Link.com,2013-01-18 15:04:00,
2013-01-18 10:19:00,28.4,21.8,30.29,ESE,112,6.8,-999.0,76,-99.99,,,0.00,Acu-Link.com,2013-01-18 15:19:00,
2013-01-18 10:34:00,28.9,21.7,30.29,East,90,6.3,-999.0,74,-99.99,,,0.00,Acu-Link.com,2013-01-18 15:34:00,
2013-01-18 10:49:00,29.5,21.6,30.29,East,90,5.3,-999.0,72,-99.99,,,0.00,Acu-Link.com,2013-01-18 15:49:00,
2013-01-18 11:04:00,29.8,21.2,30.29,West,270,2.7,-999.0,70,-99.99,,,0.00,Acu-Link.com,2013-01-18 16:04:00,
2013-01-18 11:19:00,30.9,22.3,30.29,South,180,1.7,-999.0,70,-99.99,,,0.00,Acu-Link.com,2013-01-18 16:19:00,
2013-01-18 11:35:00,32.0,23.0,30.28,ENE,67,3.2,-999.0,69,-99.99,,,0.00,Acu-Link.com,2013-01-18 16:35:00,
2013-01-18 11:50:00,32.7,23.3,30.28,WSW,247,2.7,-999.0,68,-99.99,,,0.00,Acu-Link.com,2013-01-18 16:50:00,
2013-01-18 12:05:00,33.4,23.3,30.27,SSW,202,3.2,-999.0,66,-99.99,,,0.00,Acu-Link.com,2013-01-18 17:05:00,
2013-01-18 12:20:00,33.6,23.1,30.26,SE,135,2.7,-999.0,65,-99.99,,,0.00,Acu-Link.com,2013-01-18 17:20:00,
2013-01-18 12:35:00,34.0,23.1,30.25,West,270,2.7,-999.0,64,-99.99,,,0.00,Acu-Link.com,2013-01-18 17:35:00,
2013-01-18 12:50:00,35.6,24.3,30.24,South,180,2.7,-999.0,63,-99.99,,,0.00,Acu-Link.com,2013-01-18 17:50:00,
2013-01-18 13:06:00,35.2,24.3,30.24,SW,225,2.2,-999.0,64,-99.99,,,0.00,Acu-Link.com,2013-01-18 18:06:00,
2013-01-18 13:21:00,36.3,24.9,30.24,SW,225,3.7,-999.0,63,-99.99,,,0.00,Acu-Link.com,2013-01-18 18:21:00,
2013-01-18 13:36:00,37.2,26.5,30.23,NNW,337,2.2,-999.0,65,-99.99,,,0.00,Acu-Link.com,2013-01-18 18:36:00,
2013-01-18 13:51:00,36.7,23.7,30.23,WSW,247,5.8,-999.0,59,-99.99,,,0.00,Acu-Link.com,2013-01-18 18:51:00,
2013-01-18 14:06:00,37.6,25.8,30.23,SW,225,3.7,-999.0,62,-99.99,,,0.00,Acu-Link.com,2013-01-18 19:06:00,
2013-01-18 14:21:00,37.8,25.2,30.23,SW,225,3.7,-999.0,60,-99.99,,,0.00,Acu-Link.com,2013-01-18 19:21:00,
2013-01-18 14:36:00,38.8,25.3,30.23,SW,225,6.3,-999.0,58,-99.99,,,0.00,Acu-Link.com,2013-01-18 19:36:00,
2013-01-18 14:51:00,39.0,25.9,30.22,WSW,247,8.3,-999.0,59,-99.99,,,0.00,Acu-Link.com,2013-01-18 19:51:00,
2013-01-18 15:06:00,39.0,25.5,30.22,West,270,3.2,-999.0,58,-99.99,,,0.00,Acu-Link.com,2013-01-18 20:06:00,
2013-01-18 15:22:00,39.4,26.3,30.22,SW,225,4.2,-999.0,59,-99.99,,,0.00,Acu-Link.com,2013-01-18 20:22:00,
2013-01-18 15:37:00,39.6,26.1,30.21,SW,225,5.3,-999.0,58,-99.99,,,0.00,Acu-Link.com,2013-01-18 20:37:00,
2013-01-18 15:52:00,39.9,26.3,30.21,SW,225,5.8,-999.0,58,-99.99,,,0.00,Acu-Link.com,2013-01-18 20:52:00,
2013-01-18 16:07:00,39.6,26.9,30.21,WSW,247,5.3,-999.0,60,-99.99,,,0.00,Acu-Link.com,2013-01-18 21:07:00,
2013-01-18 16:22:00,39.7,26.6,30.20,SSW,202,6.3,-999.0,59,-99.99,,,0.00,Acu-Link.com,2013-01-18 21:22:00,
2013-01-18 16:37:00,40.1,26.9,30.20,West,270,6.8,-999.0,59,-99.99,,,0.00,Acu-Link.com,2013-01-18 21:37:00,
2013-01-18 16:53:00,40.5,27.3,30.19,West,270,6.3,-999.0,59,-99.99,,,0.00,Acu-Link.com,2013-01-18 21:53:00,
2013-01-18 17:08:00,40.1,26.9,30.19,West,270,2.7,-999.0,59,-99.99,,,0.00,Acu-Link.com,2013-01-18 22:08:00,
2013-01-18 17:23:00,39.9,27.2,30.18,WSW,247,3.7,-999.0,60,-99.99,,,0.00,Acu-Link.com,2013-01-18 22:23:00,
2013-01-18 17:38:00,37.9,26.4,30.17,SW,225,1.7,-999.0,63,-99.99,,,0.00,Acu-Link.com,2013-01-18 22:38:00,
2013-01-18 17:53:00,36.5,26.2,30.17,West,270,2.2,-999.0,66,-99.99,,,0.00,Acu-Link.com,2013-01-18 22:53:00,
2013-01-18 18:08:00,35.8,26.3,30.16,West,270,2.7,-999.0,68,-99.99,,,0.00,Acu-Link.com,2013-01-18 23:08:00,
2013-01-18 18:24:00,35.6,26.5,30.17,SW,225,1.7,-999.0,69,-99.99,,,0.00,Acu-Link.com,2013-01-18 23:24:00,
2013-01-18 18:39:00,34.9,26.1,30.15,West,270,2.2,-999.0,70,-99.99,,,0.00,Acu-Link.com,2013-01-18 23:39:00,
2013-01-18 18:54:00,34.0,25.6,30.15,ENE,67,0.0,-999.0,71,-99.99,,,0.00,Acu-Link.com,2013-01-18 23:54:00,
2013-01-18 19:09:00,33.3,25.3,30.16,West,270,2.2,-999.0,72,-99.99,,,0.00,Acu-Link.com,2013-01-19 00:09:00,
2013-01-18 19:24:00,33.3,25.6,30.15,West,270,2.2,-999.0,73,-99.99,,,0.00,Acu-Link.com,2013-01-19 00:24:00,
2013-01-18 19:39:00,32.5,25.2,30.15,SW,225,0.0,-999.0,74,-99.99,,,0.00,Acu-Link.com,2013-01-19 00:39:00,
2013-01-18 19:54:00,32.5,25.2,30.13,WSW,247,2.7,-999.0,74,-99.99,,,0.00,Acu-Link.com,2013-01-19 00:54:00,
2013-01-18 20:10:00,33.3,25.3,30.14,West,270,4.2,-999.0,72,-99.99,,,0.00,Acu-Link.com,2013-01-19 01:10:00,
2013-01-18 20:25:00,33.8,25.4,30.13,SSW,202,1.7,-999.0,71,-99.99,,,0.00,Acu-Link.com,2013-01-19 01:25:00,
2013-01-18 20:40:00,33.4,25.4,30.12,West,270,0.0,-999.0,72,-99.99,,,0.00,Acu-Link.com,2013-01-19 01:40:00,
2013-01-18 20:55:00,33.8,25.4,30.12,West,270,3.7,-999.0,71,-99.99,,,0.00,Acu-Link.com,2013-01-19 01:55:00,
2013-01-18 21:13:00,33.6,25.2,30.11,SW,225,3.7,-999.0,71,-99.99,,,0.00,Acu-Link.com,2013-01-19 02:13:00,
2013-01-18 21:28:00,33.6,25.2,30.11,WSW,247,5.3,-999.0,71,-99.99,,,0.00,Acu-Link.com,2013-01-19 02:28:00,
2013-01-18 21:43:00,33.8,25.4,30.12,SW,225,4.2,-999.0,71,-99.99,,,0.00,Acu-Link.com,2013-01-19 02:43:00,
2013-01-18 21:58:00,34.2,25.8,30.11,WSW,247,5.3,-999.0,71,-99.99,,,0.00,Acu-Link.com,2013-01-19 02:58:00,
2013-01-18 22:13:00,34.0,25.9,30.11,SW,225,7.8,-999.0,72,-99.99,,,0.00,Acu-Link.com,2013-01-19 03:13:00,
2013-01-18 22:28:00,34.2,26.5,30.10,WSW,247,5.3,-999.0,73,-99.99,,,0.00,Acu-Link.com,2013-01-19 03:28:00,
2013-01-18 22:43:00,34.3,26.6,30.10,West,270,4.7,-999.0,73,-99.99,,,0.00,Acu-Link.com,2013-01-19 03:43:00,
2013-01-18 22:58:00,34.3,26.6,30.09,WSW,247,4.2,-999.0,73,-99.99,,,0.00,Acu-Link.com,2013-01-19 03:58:00,
2013-01-18 23:13:00,34.3,26.6,30.09,WSW,247,4.7,-999.0,73,-99.99,,,0.00,Acu-Link.com,2013-01-19 04:13:00,
2013-01-18 23:28:00,34.2,26.5,30.08,West,270,4.7,-999.0,73,-99.99,,,0.00,Acu-Link.com,2013-01-19 04:28:00,
2013-01-18 23:44:00,34.0,26.3,30.08,WSW,247,4.7,-999.0,73,-99.99,,,0.00,Acu-Link.com,2013-01-19 04:44:00,
2013-01-18 23:59:00,33.6,26.2,30.08,WSW,247,4.2,-999.0,74,-99.99,,,0.00,Acu-Link.com,2013-01-19 04:59:00,